sat.trackr.live / text

‹ back to catalog

STARLINK-31548

NORAD 59193 · 2024-045R

PAYLOAD ACTIVE UNKNOWN

§ Identity

Operator
Country
US
Launch date
2024-03-10
Launch site
AFETR
Launch vehicle
Mass (kg)
RCS (m²)

Purposes: comms

External: N2YO · Heavens-Above · Gunter

§ Orbital elements

Epoch: 2026-05-25T00:55:45.502176Z

Period
94.27 min
Inclination
43.0037°
Eccentricity
0.0000753
Mean motion
15.27573724 rev/d
Perigee alt
482.6 km
Apogee alt
483.6 km
Semi-major
6,861.2 km
B*
3.8582e-5
RAAN
21.7369°
Arg perigee
288.0617°
Mean anomaly
72.0152°
Rev number
12,483

§ Raw data

STARLINK-315481 59193U 24045R   26145.03872109  .00000800  00000+0  38582-4 0  99972 59193  43.0037  21.7369 0000753 288.0617  72.0152 15.27573724124839

JSON: /api/v1/satellites/59193 · /tle

For live sub-satellite position, see the globe view (requires WebGL).

§ Visibility from observer

Set your observer location to see the next 7 days of passes ≥ 10°. The values pass through the URL so the page stays shareable.

No JS? Fill the form by hand. The geolocation button needs JavaScript.